Regional Weather Roundup
Issued by NWS

Home | Current Version | Previous Version | Text Only | Print | Product List | Glossary Off
Versions: 1 2 3 4 5 6 7 8 9 10 11 12 13 14 15 16 17 18 19 20 21 22 23 24 25 26 27 28 29 30 31 32 33 34 35 36 37 38 39 40 41 42 43 44 45 46 47 48 49 50

000
ASUS43 KLMK 250210
RWRKY
KENTUCKY REGIONAL WEATHER ROUNDUP
NATIONAL WEATHER SERVICE LOUISVILLE KY
1000 PM EDT SAT JUN 24 2017

NOTE "FAIR" INDICATES FEW OR NO CLOUDS BELOW 12,000 FEET
WITH NO SIGNIFICANT WEATHER AND/OR OBSTRUCTIONS TO VISIBILITY.

KYZ001>023-026-027-061>063-070>075-250300-
WESTERN AND SOUTH CENTRAL KENTUCKY

CITY           SKY/WX    TMP DP  RH WIND       PRES   REMARKS
PADUCAH        PTCLDY    65  55  70 CALM      30.13R
HENDERSON      PTCLDY    65  61  87 CALM      30.13R
OWENSBORO      PTCLDY    67  59  75 SW5       30.13R
HOPKINSVILLE   NOT AVBL
BOWLING GREEN  PTCLDY    73  57  57 NW3       30.12R
GLASGOW        PTCLDY    68  60  74 NW3       30.13R
$$

KYZ024-025-028>034-038-045-046-053-250300-
NORTH CENTRAL KENTUCKY

CITY           SKY/WX    TMP DP  RH WIND       PRES   REMARKS
LOUISVILLE/SDF MOCLDY    70  56  61 W9        30.10R
LOUISVILLE/LOU CLEAR     71  55  56 W6        30.11R
FORT KNOX      NOT AVBL
$$

KYZ035>037-039>044-047>052-055>060-089>105-250300-
NORTHEAST KENTUCKY

CITY           SKY/WX    TMP DP  RH WIND       PRES   REMARKS
LEXINGTON      CLEAR     69  54  58 NW6       30.10R
COVINGTON      MOCLDY    68  58  70 W6        30.07R
FRANKFORT      PTCLDY    70  55  59 W6        30.09R
$$

KYZ054-064>069-076>088-106>120-250300-
SOUTHEAST KENTUCKY

CITY           SKY/WX    TMP DP  RH WIND       PRES   REMARKS
JACKSON        CLEAR     71  57  61 NW5       30.09R
LONDON         PTCLDY    70  57  63 W5        30.10R
SOMERSET       CLEAR     70  55  60 NW3       30.12R
MIDDLESBORO    PTCLDY    69  60  73 CALM      30.11R
MONTICELLO     PTCLDY    67  62  84 NW5       30.14R
$$




USA.gov is the U.S. government's official web portal to all federal, state and local government web resources and services.